TimeEDT,TemperatureF,Dew PointF,Humidity,Sea Level PressureIn,VisibilityMPH,Wind Direction,Wind SpeedMPH,Gust SpeedMPH,PrecipitationIn,Events,Conditions,WindDirDegrees,DateUTC
12:53 AM,43.0,41.0,93,30.40,10.0,Calm,Calm,-,N/A,,Overcast,0,2013-09-17 04:53:00
1:53 AM,42.1,39.9,92,30.41,10.0,Calm,Calm,-,N/A,,Mostly Cloudy,0,2013-09-17 05:53:00
2:53 AM,37.9,36.0,93,30.42,10.0,Calm,Calm,-,N/A,,Clear,0,2013-09-17 06:53:00
3:53 AM,36.0,34.0,93,30.43,10.0,Calm,Calm,-,N/A,,Clear,0,2013-09-17 07:53:00
4:53 AM,34.0,33.1,96,30.44,10.0,South,3.5,-,N/A,,Clear,170,2013-09-17 08:53:00
5:53 AM,35.1,33.1,92,30.45,10.0,South,3.5,-,N/A,,Clear,180,2013-09-17 09:53:00
6:53 AM,37.0,35.1,93,30.47,8.0,South,3.5,-,N/A,,Clear,190,2013-09-17 10:53:00
7:02 AM,35.6,33.8,93,30.45,1.2,South,3.5,-,N/A,,Scattered Clouds,170,2013-09-17 11:02:00
7:09 AM,37.4,35.6,93,30.45,0.2,SSW,3.5,-,N/A,Fog,Fog,210,2013-09-17 11:09:00
7:53 AM,42.1,41.0,96,30.48,1.2,SSW,4.6,-,N/A,,Mostly Cloudy,210,2013-09-17 11:53:00
8:25 AM,44.6,42.8,93,30.47,2.5,SW,3.5,-,N/A,,Overcast,230,2013-09-17 12:25:00
8:45 AM,44.6,42.8,93,30.48,4.0,SW,5.8,-,N/A,,Mostly Cloudy,220,2013-09-17 12:45:00
8:53 AM,45.0,43.0,93,30.50,7.0,SSW,4.6,-,N/A,,Partly Cloudy,210,2013-09-17 12:53:00
9:53 AM,48.0,41.0,77,30.51,10.0,Calm,Calm,-,N/A,,Clear,0,2013-09-17 13:53:00
10:53 AM,53.1,39.9,61,30.50,10.0,ESE,4.6,-,N/A,,Clear,110,2013-09-17 14:53:00
11:53 AM,54.0,39.0,57,30.49,10.0,Calm,Calm,-,N/A,,Clear,0,2013-09-17 15:53:00
12:53 PM,57.9,39.0,49,30.47,10.0,Variable,3.5,-,N/A,,Clear,0,2013-09-17 16:53:00
1:53 PM,59.0,39.0,48,30.44,10.0,Calm,Calm,-,N/A,,Clear,0,2013-09-17 17:53:00
2:53 PM,61.0,39.0,44,30.42,10.0,Variable,3.5,-,N/A,,Clear,0,2013-09-17 18:53:00
3:53 PM,62.1,39.0,43,30.40,10.0,Calm,Calm,-,N/A,,Clear,0,2013-09-17 19:53:00
4:53 PM,62.1,39.9,44,30.38,10.0,Variable,4.6,-,N/A,,Clear,0,2013-09-17 20:53:00
5:53 PM,61.0,41.0,48,30.37,10.0,Calm,Calm,-,N/A,,Clear,0,2013-09-17 21:53:00
6:53 PM,57.9,43.0,58,30.35,10.0,Calm,Calm,-,N/A,,Clear,0,2013-09-17 22:53:00
7:53 PM,48.9,44.1,83,30.35,10.0,Calm,Calm,-,N/A,,Clear,0,2013-09-17 23:53:00
8:53 PM,46.0,42.1,86,30.36,10.0,Calm,Calm,-,N/A,,Clear,0,2013-09-18 00:53:00
9:53 PM,46.0,42.1,86,30.35,10.0,Calm,Calm,-,N/A,,Clear,0,2013-09-18 01:53:00
10:53 PM,44.1,42.1,93,30.34,10.0,Calm,Calm,-,N/A,,Clear,0,2013-09-18 02:53:00
11:53 PM,48.9,46.0,90,30.33,10.0,SSW,3.5,-,N/A,,Clear,210,2013-09-18 03:53:00